Tracking 17856 objects as of 27-September-2016
HD Live streaming from Space Station
objects crossing your sky now

TANSUO 2

Track TANSUO 2 now!
10-day predictions
TANSUO 2 is classified as:


NORAD ID: 28479
Int'l Code: 2004-046A
Perigee: 691.8 km
Apogee: 705.1 km
Inclination: 98.2 °
Period: 98.6 minutes
Semi major axis: 7069 km
RCS: 1.44 m2 (large)
Launch date: November 18, 2004
Source: People's Republic of China (PRC)
Launch site: Xichang Space Center, China (XSC)
Your satellite tracking list
Your tracking list is empty





NASA's NSSDC Master Catalog

Two Line Element Set (TLE):
1 28479U 04046A   16270.71882465  .00000197  00000-0  50216-4 0  9996
2 28479  98.2275 283.9272 0009405 225.7275 134.3154 14.60588818631073
Source of the keplerian elements: AFSPC

N2YO: 486